Pecos, TX

5:19 AM CST on November 19, 2017 (GMT -0600)
Pecos Municipal

Weather History for KPEQ - May, 2013

Change the Weather History Date:

Wednesday, May 15, 2013

  Actual Average Record
Temperature  
Mean Temperature 74 °F -  
Max Temperature 94 °F 89 °F 105 °F (1948)
Min Temperature 58 °F 54 °F 35 °F (2014)
Cooling Degree Days 10    
Growing Degree Days 24 (Base 50)    
Moisture  
Dew Point 48 °F    
Average Humidity 55    
Maximum Humidity 77    
Minimum Humidity 15    
Precipitation  
Precipitation 0.00 in - - ()
Sea Level Pressure  
Sea Level Pressure 29.92 in    
Wind  
Wind Speed 10 mph (East)    
Max Wind Speed 24 mph    
Max Gust Speed 32 mph    
Visibility 10 miles    
Events      
Averages and records for this station are not official NWS values.
T = Trace of Precipitation, MM = Missing Value Source: NWS Daily Summary

Daily Weather History Graph

Daily Weather History Graph

Search for Another Location

Airport or City:

Trip Planner

Search our weather history database for the weather conditions in past years. The results will help you decide how hot, cold, wet, or windy it might be!

Date:

Astronomy

May. 15, 2013 Rise Set
Actual Time 6:57 AM CDT 8:43 PM CDT
Civil Twilight 6:31 AM CDT 9:10 PM CDT
Nautical Twilight 5:59 AM CDT 9:42 PM CDT
Astronomical Twilight 5:25 AM CDT 10:16 PM CDT
Moon 11:32 AM CDT (5/15) 12:33 AM CDT (5/15)
Length of Visible Light 14h 39m
Length of Day
13h 45m
Waxing Crescent, 27% of the Moon is Illuminated
May 15
Waxing Crescent
May 17
First Quarter
May 24
Full
May 31
Last Quarter
Jun 8
New

Hourly Weather History & Observations

Time (CDT) Temp. Dew Point Humidity Pressure Visibility Wind Dir Wind Speed Gust Speed Precip Events Conditions
12:15 AM 66.2 °F 50.0 °F 56% 30.00 in 10.0 mi ESE 11.5 mph - N/A   Clear
12:35 AM 65.3 °F 50.7 °F 59% 30.00 in 10.0 mi East 17.3 mph 23.0 mph N/A   Clear
12:55 AM 63.9 °F 51.6 °F 64% 30.00 in 10.0 mi ESE 12.7 mph - N/A   Clear
1:35 AM 62.8 °F 53.2 °F 71% 29.99 in 10.0 mi ESE 11.5 mph - N/A   Clear
1:55 AM 63.3 °F 52.3 °F 67% 29.98 in 10.0 mi SE 11.5 mph - N/A   Clear
2:15 AM 63.7 °F 50.5 °F 62% 29.96 in 10.0 mi SE 10.4 mph - N/A   Clear
2:35 AM 63.1 °F 50.0 °F 62% 29.96 in 10.0 mi ESE 8.1 mph - N/A   Clear
2:55 AM 62.6 °F 49.3 °F 62% 29.95 in 10.0 mi East 4.6 mph - N/A   Clear
3:15 AM 61.5 °F 49.5 °F 65% 29.95 in 10.0 mi ENE 3.5 mph - N/A   Clear
3:35 AM 60.8 °F 49.8 °F 67% 29.95 in 10.0 mi NE 6.9 mph - N/A   Clear
3:55 AM 61.0 °F 50.7 °F 69% 29.94 in 10.0 mi ENE 5.8 mph - N/A   Clear
4:15 AM 61.0 °F 51.1 °F 70% 29.93 in 10.0 mi ENE 4.6 mph - N/A   Clear
4:35 AM 60.8 °F 50.9 °F 70% 29.93 in 10.0 mi ENE 5.8 mph - N/A   Clear
4:55 AM 59.9 °F 50.9 °F 72% 29.92 in 10.0 mi East 3.5 mph - N/A   Clear
5:15 AM 58.6 °F 50.2 °F 73% 29.93 in 10.0 mi ENE 5.8 mph - N/A   Clear
5:35 AM 58.5 °F 50.4 °F 74% 29.93 in 10.0 mi NNE 4.6 mph - N/A   Clear
5:55 AM 60.1 °F 52.2 °F 75% 29.95 in 10.0 mi North 6.9 mph - N/A   Clear
6:15 AM 59.9 °F 52.7 °F 77% 29.96 in 10.0 mi NNW 3.5 mph - N/A   Scattered Clouds
6:55 AM 59.9 °F 52.7 °F 77% 29.93 in 10.0 mi North 6.9 mph - N/A   Clear
7:15 AM 60.1 °F 52.3 °F 76% 29.93 in 10.0 mi WSW 3.5 mph - N/A   Clear
7:35 AM 60.1 °F 52.3 °F 76% 29.93 in 10.0 mi Calm Calm - N/A   Clear
9:15 AM 63.7 °F 51.8 °F 65% 29.92 in 10.0 mi ESE 8.1 mph - N/A   Clear
10:55 AM 85.1 °F 37.8 °F 19% 29.92 in 10.0 mi WSW 24.2 mph 29.9 mph N/A   Clear
11:55 AM 88.7 °F 37.8 °F 17% 29.91 in 10.0 mi West 23.0 mph 32.2 mph N/A   Clear
12:15 PM 90.0 °F 38.1 °F 16% 29.90 in 10.0 mi West 23.0 mph 29.9 mph N/A   Clear
5:55 PM 91.9 °F 38.5 °F 15% 29.80 in 10.0 mi WSW 15.0 mph 20.7 mph N/A   Clear
7:15 PM 90.5 °F 38.5 °F 16% 29.77 in 10.0 mi SSW 8.1 mph - N/A   Clear
7:35 PM 90.3 °F 38.3 °F 16% 29.76 in 10.0 mi SSW 5.8 mph - N/A   Clear
10:35 PM 77.0 °F 38.3 °F 25% 29.79 in 10.0 mi SSW 8.1 mph - N/A   Clear
11:55 PM 76.8 °F 38.8 °F 25% 29.81 in 10.0 mi NW 11.5 mph - N/A   Clear